COSMOS 2492 (754)

Last updated on Wed Nov 20 2024 00:03:10 GMT+0000 (Coordinated Universal Time)

1 39620U 14012A 24324.02574086 -.00000056 00000+0 00000+0 0 9995 2 39620 65.6071 333.4152 0014249 309.7519 50.1519 2.13103167 82984
UTC large
Height (km)
Speed (km/s)
/
Latitude / Longitude
Inclination (degrees)
Orbital Period (minutes)
Azimuth
Elevation
Range (km)
Doppler Factor

Next 0 passes for location: London (51.5072 / 0.1276)

Sorry there are no passes over London.